Location: Barcelona
(41.3829°N, 2.1774°E)
Time: 22:34:05
(UTC+00:00)

ISS - Pass Details

Date: 03 April 2024
Orbit: 413 x 419 km, 51.6° (Epoch: 13 April)

Event Time Altitude Azimuth Distance (km) Brightness Sun altitude
Rises 18:51:50 0° 292° (WNW) 2,358 2.4 -6.9°
Reaches altitude 10° 18:54:24 10° 272° (W) 1,492 0.6 -7.3°
Maximum altitude 18:56:43 18° 228° (SW) 1,117 -1.1 -7.7°
Drops below altitude 10° 18:59:01 10° 184° (S) 1,488 -1.1 -8.2°
Sets 19:01:34 0° 164° (SSE) 2,348 -0.3 -8.6°
